Find Starlink 35516

NORAD ID: 65918 Int'l Des: 2025-225 Owner: SPXS Country: US Constellation: starlink operational
LEOCIRCULAR

实时位置

正在加载3D地球...

关于 Starlink 35516

正在加载描述...

即将过境

Passes for default location (London). Set your location on the main map for personalized predictions.

高度历史

Loading altitude history...

两行轨道根数

1 65918U 25225J 26106.91668981 -.00016400 00000-0 -54279-3 0 9991
2 65918 53.1599 347.9991 0001379 83.9274 236.9055 15.30199584 5873
Epoch: Apr 16, 2026 • Age: 12 hours

当前状态

高度 480.4 km
速度 7.63 km/s
星下点 50.84°N, 110.04°E
发射日期 Oct 8, 2025
运行时间 0.5 years
类型 internet

技术详情

分类 Payload
质量 575.00 kg
干质量 530.00 kg
总质量 575.00 kg
长度 0.30 m
直径 4.10 m
跨度 29.00 m
形状 Box + pan
制造商 SPXS
平台类型 Starlink V2MO
阶段状态 In Orbit
所有者/国家 SPXS/US

Most Searched